This is the latest recevied weather packets stored in our database for station/object K0WOI. If no packets are shown the sender has not sent any weather packets the latest 10 day(s).
| Time | Temp. | Humidity | Pressure | Rain* | Wind** | Luminosity | Snow |
|---|---|---|---|---|---|---|---|
| 1777539133 | 9.44° C | 73% | 1016.8 hPa | 0 mm | - | 0 W/m² | - |
| 1777538829 | 8.89° C | 77% | 1017 hPa | 0 mm | - | 0 W/m² | - |
| 1777538524 | 8.33° C | 88% | 1016.8 hPa | 0 mm | - | 0 W/m² | - |
| 1777538220 | 8.33° C | 93% | 1016.7 hPa | 0 mm | - | 0 W/m² | - |
| 1777537916 | 8.33° C | 92% | 1016.7 hPa | 0 mm | - | 0 W/m² | - |
| 1777537612 | 8.33° C | 90% | 1016.7 hPa | 0 mm | - | 0 W/m² | - |
| 1777537308 | 8.89° C | 86% | 1016.8 hPa | 0 mm | - | 0 W/m² | - |
| 1777537004 | 8.89° C | 81% | 1016.6 hPa | 0 mm | - | 0 W/m² | - |
| 1777536702 | 8.89° C | 87% | 1016.9 hPa | 0 mm | - | 0 W/m² | - |
| 1777536399 | 8.33° C | 86% | 1016.8 hPa | 0 mm | - | 0 W/m² | - |
| 1777536095 | 8.33° C | 88% | 1016.9 hPa | 0 mm | - | 0 W/m² | - |
| 1777535791 | 9.44° C | 88% | 1017 hPa | 0 mm | - | 0 W/m² | - |
| 1777535488 | 9.44° C | 79% | 1016.7 hPa | 0 mm | - | 0 W/m² | - |
| 1777535185 | 9.44° C | 77% | 1016.7 hPa | 0 mm | - | 0 W/m² | - |
| 1777534881 | 9.44° C | 82% | 1016.7 hPa | 0 mm | - | 0 W/m² | - |
| 1777534578 | 9.44° C | 81% | 1016.7 hPa | 1.78 mm | - | 0 W/m² | - |
| 1777534276 | 10° C | 79% | 1016.7 hPa | 1.78 mm | - | 0 W/m² | - |
| 1777533974 | 9.44° C | 77% | 1016.8 hPa | 0 mm | - | 0 W/m² | - |
| 1777533670 | 10° C | 76% | 1017.2 hPa | 0 mm | - | 0 W/m² | - |
| 1777533366 | 9.44° C | 68% | 1017.3 hPa | 0 mm | - | 0 W/m² | - |
| 1777533063 | 9.44° C | 65% | 1017.3 hPa | 0 mm | - | 0 W/m² | - |
| 1777532761 | 8.89° C | 65% | 1017.1 hPa | 0 mm | - | 0 W/m² | - |
| 1777532456 | 8.33° C | 68% | 1017 hPa | 0 mm | - | 0 W/m² | - |
| 1777532154 | 8.33° C | 72% | 1017.2 hPa | 0 mm | - | 0 W/m² | - |
| 1777531849 | 8.33° C | 72% | 1017 hPa | 0 mm | - | 0 W/m² | - |
* Rain latest hour (hover to see other rain measurements)
** Current wind speed in m/s (hover to see current wind gust speed)